Regional Weather Roundup
Issued by NWS

Home | Current Version | Previous Version | Text Only | Print | Product List | Glossary On
Versions: 1 2 3 4 5 6 7 8 9 10 11 12 13 14 15 16 17 18 19 20 21 22 23 24 25 26 27 28 29 30 31 32 33 34 35 36 37 38 39 40 41 42 43 44 45 46 47 48 49 50
768
ASUS44 KLUB 120501
RWRTX
WEST TEXAS WEATHER ROUNDUP
NATIONAL WEATHER SERVICE LUBBOCK TX
1100 PM CST THU FEB 11 2016

NOTE: "FAIR" INDICATES FEW OR NO CLOUDS BELOW 12,000 FEET WITH NO
SIGNIFICANT WEATHER AND/OR OBSTRUCTIONS TO VISIBILITY.

TXZ004-006>008-010-012-014-016-OKZ002-120600-
TEXAS PANHANDLE/OKLAHOMA PANHANDLE

CITY           SKY/WX    TMP DP  RH WIND       PRES   REMARKS
AMARILLO       CLOUDY    42  24  49 S12       30.19R
BORGER         CLOUDY    50  26  39 SW5       30.17R
CANADIAN       CLEAR     40  29  65 CALM      30.16R
DALHART        CLOUDY    40  16  37 NW8       30.19R WCI  34
DUMAS          CLOUDY    39  22  48 SW5       30.18R
GUYMON         CLEAR     43  24  47 N10       30.19R
$$

TXZ026-029-035-045-048-120600-
SOUTHERN PANHANDLE/SOUTH PLAINS/ROLLING PLAINS

CITY           SKY/WX    TMP DP  RH WIND       PRES   REMARKS
CHILDRESS      CLEAR     45  31  58 SE8       30.18R
LUBBOCK        CLOUDY    46  25  43 SE6       30.19R
SNYDER           N/A     50  30  46 NE7       30.18F
$$

TXZ052-054-060>062-072-078-127-140-154-169-120600-
PERMIAN BASIN/CONCHO VALLEY/BIG COUNTRY/EDWARDS PLATEAU

CITY           SKY/WX    TMP DP  RH WIND       PRES   REMARKS
ABILENE        PTCLDY    47  33  58 CALM      30.17R
JUNCTION       CLEAR     45  26  47 CALM      30.16R
MIDLAND        CLEAR     43  28  55 N5        30.19S
ODESSA         CLOUDY    45  26  47 NE6       30.20R
SAN ANGELO     CLEAR     47  24  40 SW3       30.16R
WINK           CLEAR     44  24  45 NW7       30.18R
$$

TXZ055-058-074-075-080-082-120600-
FAR WEST/SOUTHWEST MOUNTAINS/TRANS PECOS

CITY           SKY/WX    TMP DP  RH WIND       PRES   REMARKS
DRYDEN           N/A     61  19  19 N9        30.15F
EL PASO        CLEAR     54  19  25 S5        30.23S
FORT STOCKTON  CLEAR     51  25  36 SW10      30.20S
GUADALUPE PASS CLOUDY    55   9  16 SW13      30.30S
MARFA          CLEAR     33  12  41 N8        30.30R WCI  26
PRESIDIO       FAIR      58  15  18 MISG      30.20S
$$

TXZ014-016-019-021>030-083-120600
TEXAS TECH WEST TEXAS MESONET/TEXAS PANHANDLE/NORTHERN SOUTH PLAINS

CITY           SKY/WX    TMP DP  RH WIND       PRES   REMARKS
ABERNATHY 5ENE   N/A     42  25  50 SE5       30.20S
AMARILLO 9NNE    N/A     43  25  49 S8        30.17S
AMARILLO 7SSE    N/A     41  24  51 S3        30.20R
AMHERST 1NE      N/A     40  22  47 S2        30.20R
BOOTLEG 11WNW    N/A     39  19  44 SW12      30.22S WCI  32
CANADIAN 6E      N/A     47  29  49 SE5       30.14S
CAPROCK CYN SP   N/A     48  27  43 S9        30.19S
CHILDRESS 2NNE   N/A     46  33  59 SE8       30.18R
CLARENDON 2WSW   N/A     43  28  54 S7        30.17R
CLAUDE 12SW      N/A     50  25  38 S7        30.19R
DIMMITT 2NE      N/A     39  22  50 S10       30.20S WCI  32
FLOYDADA 2NNE    N/A     41  24  50 S6        30.19S
FRIONA 2NE       N/A     39  22  49 S10       30.20S WCI  33
GOODLETT 3W      N/A     47  33  58 NE6       30.17R
HART 3N          N/A     42  23  47 S6        30.20S
HEREFORD 2NW     N/A     44  21  40 S7        30.19S
MCLEAN 1E        N/A     44  27  51 S7        30.16R
MEMPHIS 1NE      N/A     39  29  67 NW3       30.18R
MULESHOE 2SSW    N/A     42  21  43 S6        30.21R
OLTON 6S         N/A     43  22  43 S10       30.20R
PALO DURO SP     N/A     47  24  40 S7        30.20R
PAMPA 2E         N/A     41  28  58 S7        30.17R
PLAINVIEW 1S     N/A     41  25  53 S3        30.19S
SILVERTON 7ESE   N/A     38  25  60 S10       30.19S WCI  30
TULIA 2ENE       N/A     41  25  54 S10       30.19S
UMBARGER 3NNE    N/A     39  20  47 S8        30.20R WCI  33
$$

TXZ033>036-039>041-045>048-120600
TEXAS TECH WEST TEXAS MESONET/SOUTH PLAINS

CITY           SKY/WX    TMP DP  RH WIND       PRES   REMARKS
AIKEN 3WSW       N/A     38  23  53 S7        30.21S WCI  33
ANDREWS 2NE      N/A     48  30  50 E2        30.20S
ANTON 6SSW       N/A     41  24  51 S1        30.20R
DENVR CTY 7WNW   N/A     44  22  41 SW8       30.21R
GAIL 2ESE        N/A     50  27  40 CALM      30.17F
LAMESA 2SE       N/A     41  26  54 NE2       30.20S
LEVELLAND 4S     N/A     41  21  44 S9        30.20R
LUBBOCK 3WNW     N/A     47  26  43 SE3       30.20R
MORTON 1ENE      N/A     43  23  45 S8        30.20S
ODONNELL 1N      N/A     39  23  53 S3        30.18F
PLAINS 3N        N/A     45  22  40 S3        30.21S
RALLS 1SE        N/A     42  24  50 SE5       30.21R
REESE CENTER     N/A     44  24  45 S6        30.19S
SEAGRAVES 1SW    N/A     36  25  65 NW1       30.20S
SEMINOLE 2NNE    N/A     41  24  51 CALM      30.20S
SNYDER 3E        N/A     53  30  41 NE9       30.17S
SUNDOWN 8SW      N/A     42  21  43 S6        30.20S
TAHOKA 3NNE      N/A     38  23  53 SE3       30.19R
WOLFFORTH 6SSW   N/A     43  21  42 SE5       30.20R
$$

TXZ031-032-036>038-042>044-120600-
TEXAS TECH WEST TEXAS MESONET/ROLLING PLAINS

CITY           SKY/WX    TMP DP  RH WIND       PRES   REMARKS
ASPERMONT 3NE    N/A     42  28  57 NE2       30.18S
FLUVANNA 3WNW    N/A     47  27  46 E6        30.18S
GRAHAM 5SSW      N/A     51  25  35 E2        30.19R
GUTHRIE 10WSW    N/A     46  28  49 W2        30.18R
HASKELL 1NW      N/A     43  29  56 N7        30.16S
JAYTON 1SSE      N/A     53  30  40 NE5       30.18R
KNOX CITY 3NW    N/A     37  30  75 CALM      30.18R
LK A HENRY 1NW   N/A     50  27  40 CALM      30.18R
NORTHFIELD 1S    N/A     45  30  55 SW7       30.17F
ODELL 4ENE       N/A     40  34  80 N5        30.19R
PADUCAH 10SW     N/A     50  31  47 S3        30.18R
POST 1NE         N/A     51  26  37 E2        30.18S
RRING SPRGS 3N   N/A     43  28  55 SW6       30.19R
SEYMOUR 3NW      N/A     42  34  74 NE5       30.17R
SPUR 1W          N/A     36  26  66 NW7       30.18S WCI  31
WEINERT 2NNE     N/A     42  32  68 N1        30.17S
WHITE RVR 6NE    N/A     47  26  44 N5        30.19S
$$

TXZ052-054-060>062-072-078-127-140-154-169-120600-
TEXAS TECH WEST TEXAS MESONET/PERMIAN BASIN/
CONCHO VALLEY/BIG COUNTRY/EDWARDS PLATEAU

CITY           SKY/WX    TMP DP  RH WIND       PRES   REMARKS
COYANOSA 2N      N/A     44  22  42 SW9       30.20R
JUNCTION 1SSW    N/A     49  28  43 S3        30.17R
MERTZON 3NNE     N/A     42  24  50 S6        30.18S
SAN ANGELO 7NW   N/A     46  24  40 NW6       30.16S
STRLNG CT 4WSW   N/A     39  25  56 SW3       30.19S
ST LAWRNCE 5SW   N/A     45  19  36 N7        30.19S
SWEETWATR 11SW   N/A     49  32  51 NE10      30.19R
WALL 1E          N/A     49  19  30 SW3       30.17R
$$

TXZ055-058-074-075-080-082-120600-
TEXAS TECH WEST TEXAS MESONET/FAR WEST/SOUTHWEST MOUNTAINS/TRANS PECOS

CITY           SKY/WX    TMP DP  RH WIND       PRES   REMARKS
PRSMN GAP BBNP   N/A     58  11  15 CALM      30.19S
GUADLPE MTN NP   N/A     59   2  10 W12       30.29S
$$




USA.gov is the U.S. government's official web portal to all federal, state and local government web resources and services.